Location: Bli��� Lhota
(48.7570°N, 14.0120°E)
Time: 06:13:36
(UTC+00:00)

Ariane Rocket - Pass Details

Date: 18 September 2020
Orbit: 760 x 769 km, 98.7° (Epoch: 27 October)

Event Time Altitude Azimuth Distance (km) Brightness Sun altitude
Exits shadow 18:09:45 - 146° (SSE) 2,718 5.4 -10.6°
Reaches altitude 10° 18:10:50 10° 144° (SE) 2,295 5.0 -10.8°
Maximum altitude 18:15:43 52° 69° (ENE) 946 3.2 -11.6°
Drops below altitude 10° 18:20:40 10° 354° (N) 2,316 5.8 -12.3°
Sets 18:23:01 0° 349° (N) 3,249 6.6 -12.7°
